Location: Larrial
(48.2758°N, 4.5331°W)
Time: 09:35:49
(UTC+00:00)

Tiangong - Visible Passes

Search period start: 26 September 2021 00:00
Search period end: 06 October 2021 00:00
Orbit: 382 x 385 km, 41.5° (Epoch: 26 September)

Date Brightness Start Highest point End Pass type
(mag) Time Alt. Az. Time Alt. Az. Time Alt. Az.
26 Sep 3.8 05:34:57 10° S 05:36:23 13° SSE 05:37:50 10° SE visible
28 Sep 3.4 05:10:59 10° SSW 05:13:06 17° SSE 05:15:12 10° ESE visible
29 Sep 3.7 04:13:37 12° SSE 04:13:37 12° SSE 04:14:51 10° SE visible
30 Sep 3.0 04:48:48 17° SSW 04:49:49 20° S 04:52:14 10° ESE visible
01 Oct 4.0 03:51:45 12° SE 03:51:45 12° SE 03:52:11 10° ESE visible
01 Oct 2.7 05:23:57 11° SW 05:26:19 24° S 05:28:56 10° SE visible
02 Oct 2.9 04:26:53 22° SSE 04:26:53 22° SSE 04:29:06 10° ESE visible
03 Oct 2.7 05:02:02 19° SW 05:03:01 22° S 05:05:34 10° SE visible
04 Oct 3.7 04:05:00 15° SE 04:05:00 15° SE 04:05:49 10° SE visible
04 Oct 3.2 05:37:27 10° WSW 05:39:26 16° SSW 05:41:26 10° SSE visible
05 Oct 3.0 04:40:12 19° S 04:40:12 19° S 04:42:02 10° SE visible
